Weather History for KAMN - November, 2012

Change the Weather History Date:

Thursday, November 1, 2012

  Actual Average (KMBS) Record (KMBS)
Temperature  
Mean Temperature 41 °F 44 °F  
Max Temperature 47 °F 53 °F - ()
Min Temperature 35 °F 36 °F - ()
Degree Days  
Heating Degree Days 24    
Month to date heating degree days  
Since 1 July heating degree days  
Cooling Degree Days 0    
Month to date cooling degree days  
Year to date cooling degree days  
Moisture  
Dew Point 31 °F    
Average Humidity 70    
Maximum Humidity 90    
Minimum Humidity 45    
Precipitation  
Precipitation 0.00 in 0.10 in - ()
Month to date precipitation 0.10  
Year to date precipitation 27.08  
Snow  
Snow 0.00 in - - ()
Month to date snowfall  
Since 1 July snowfall  
Since 1 September snowfall  
Snow Depth -    
Sea Level Pressure  
Sea Level Pressure 29.73 in    
Wind  
Wind Speed 11 mph (WNW)    
Max Wind Speed 20 mph    
Max Gust Speed 24 mph    
Visibility 10 miles    
Events      
T = Trace of Precipitation, MM = Missing Value Source: NWS Daily Summary

Daily Weather History Graph

Daily Weather History Graph

Search for Another Location

Airport or City:

Trip Planner

Search our weather history database for the weather conditions in past years. The results will help you decide how hot, cold, wet, or windy it might be!

Date:

Astronomy

Nov. 01, 2012 Rise Set
Actual Time 8:14 AM EDT 6:29 PM EDT
Civil Twilight 7:44 AM EDT 6:59 PM EDT
Nautical Twilight 7:11 AM EDT 7:32 PM EDT
Astronomical Twilight 6:37 AM EDT 8:06 PM EDT
Moon 8:22 PM EDT (11/1) 10:50 AM EDT (11/1)
Length of Visible Light 11h 14m
Length of Day
10h 15m
Waning Gibbous, 93% of the Moon is Illuminated
Nov 1
Waning Gibbous
Nov 6
Last Quarter
Nov 13
New
Nov 20
First Quarter
Nov 28
Full

Hourly Weather History & Observations

Time (EDT) Temp. Windchill Dew Point Humidity Pressure Visibility Wind Dir Wind Speed Gust Speed Precip Events Conditions
12:13 AM 39.7 °F 33.2 °F 36.1 °F 87% 29.68 in 10.0 mi WNW 10.4 mph 17.3 mph N/A   Overcast
12:33 AM 40.1 °F 33.6 °F 36.0 °F 85% 29.68 in 10.0 mi West 10.4 mph 16.1 mph N/A   Overcast
12:53 AM 39.6 °F 32.5 °F 36.3 °F 88% 29.68 in 10.0 mi WNW 11.5 mph 17.3 mph N/A   Overcast
1:13 AM 39.6 °F 32.5 °F 36.1 °F 88% 29.68 in 10.0 mi West 11.5 mph 16.1 mph N/A   Overcast
1:33 AM 39.6 °F 33.0 °F 35.6 °F 86% 29.68 in 10.0 mi West 10.4 mph - N/A   Overcast
1:53 AM 39.4 °F 31.4 °F 35.6 °F 86% 29.68 in 10.0 mi WNW 13.8 mph - N/A   Overcast
2:13 AM 39.4 °F 32.7 °F 35.2 °F 85% 29.68 in 10.0 mi West 10.4 mph - N/A   Overcast
2:33 AM 39.4 °F 32.7 °F 34.9 °F 84% 29.68 in 10.0 mi West 10.4 mph - N/A   Overcast
2:53 AM 39.2 °F 32.0 °F 34.7 °F 84% 29.68 in 10.0 mi WNW 11.5 mph - N/A   Overcast
3:13 AM 39.2 °F 32.0 °F 34.7 °F 84% 29.68 in 10.0 mi WNW 11.5 mph - N/A   Overcast
3:34 AM 39.2 °F 32.0 °F 34.7 °F 84% 29.69 in 10.0 mi WNW 11.5 mph 18.4 mph N/A   Overcast
3:54 AM 38.8 °F 31.6 °F 34.7 °F 85% 29.69 in 10.0 mi WNW 11.5 mph - N/A   Overcast
4:14 AM 38.7 °F 30.5 °F 34.3 °F 84% 29.68 in 10.0 mi WNW 13.8 mph 19.6 mph N/A   Overcast
4:34 AM 38.7 °F 31.4 °F 34.0 °F 83% 29.68 in 10.0 mi WNW 11.5 mph - N/A   Overcast
4:54 AM 38.7 °F 30.9 °F 33.8 °F 83% 29.69 in 10.0 mi West 12.7 mph 21.9 mph N/A   Overcast
5:09 AM 38.5 °F 30.3 °F 34.0 °F 84% 29.69 in 10.0 mi West 13.8 mph 20.7 mph N/A   Overcast
5:29 AM 38.1 °F 29.8 °F 34.2 °F 86% 29.69 in 10.0 mi West 13.8 mph 18.4 mph N/A   Overcast
6:09 AM 37.6 °F 30.0 °F 34.3 °F 88% 29.69 in 10.0 mi West 11.5 mph 20.7 mph N/A   Overcast
6:30 AM 36.9 °F 29.6 °F 33.8 °F 89% 29.70 in 10.0 mi West 10.4 mph 16.1 mph N/A   Overcast
6:50 AM 36.3 °F 28.0 °F 33.3 °F 89% 29.70 in 10.0 mi West 12.7 mph - N/A   Mostly Cloudy
7:10 AM 35.6 °F 26.6 °F 32.9 °F 90% 29.70 in 10.0 mi West 13.8 mph 17.3 mph N/A   Scattered Clouds
7:30 AM 36.5 °F 29.2 °F 33.8 °F 90% 29.71 in 10.0 mi West 10.4 mph - N/A   Mostly Cloudy
7:50 AM 36.5 °F 28.2 °F 33.8 °F 90% 29.71 in 10.0 mi West 12.7 mph 18.4 mph N/A   Overcast
8:10 AM 36.5 °F 29.2 °F 33.8 °F 90% 29.72 in 10.0 mi West 10.4 mph - N/A   Overcast
8:30 AM 36.7 °F 31.2 °F 34.0 °F 90% 29.72 in 10.0 mi West 6.9 mph - N/A   Overcast
8:50 AM 36.9 °F 29.6 °F 33.8 °F 89% 29.72 in 10.0 mi West 10.4 mph - N/A   Overcast
9:31 AM 38.5 °F 32.1 °F 32.0 °F 78% 29.73 in 10.0 mi West 9.2 mph - N/A   Overcast
10:11 AM 39.2 °F 31.6 °F 32.0 °F 75% 29.74 in 10.0 mi WNW 12.7 mph 16.1 mph N/A   Overcast
10:31 AM 39.6 °F 33.0 °F 30.9 °F 71% 29.74 in 10.0 mi WNW 10.4 mph 17.3 mph N/A   Overcast
11:11 AM 41.5 °F 33.8 °F 30.6 °F 65% 29.74 in 10.0 mi WNW 15.0 mph 20.7 mph N/A   Scattered Clouds
11:31 AM 42.8 °F 35.8 °F 30.7 °F 62% 29.74 in 10.0 mi West 13.8 mph 19.6 mph N/A   Scattered Clouds
11:51 AM 42.6 °F 35.6 °F 30.6 °F 62% 29.74 in 10.0 mi WNW 13.8 mph 19.6 mph N/A   Mostly Cloudy
12:12 PM 42.8 °F 36.2 °F 29.7 °F 60% 29.74 in 10.0 mi West 12.7 mph 18.4 mph N/A   Scattered Clouds
12:32 PM 44.2 °F 38.4 °F 30.0 °F 57% 29.74 in 10.0 mi WNW 11.5 mph 20.7 mph N/A   Scattered Clouds
12:52 PM 44.4 °F 38.6 °F 29.7 °F 56% 29.73 in 10.0 mi WNW 11.5 mph 17.3 mph N/A   Mostly Cloudy
1:12 PM 45.1 °F 39.5 °F 29.5 °F 54% 29.72 in 10.0 mi WNW 11.5 mph 20.7 mph N/A   Scattered Clouds
1:32 PM 45.3 °F 39.7 °F 30.0 °F 55% 29.71 in 10.0 mi West 11.5 mph 19.6 mph N/A   Scattered Clouds
2:12 PM 46.4 °F 40.1 °F 30.2 °F 53% 29.71 in 10.0 mi West 15.0 mph 23.0 mph N/A   Scattered Clouds
2:32 PM 46.2 °F 39.8 °F 30.7 °F 55% 29.71 in 10.0 mi West 15.0 mph 21.9 mph N/A   Scattered Clouds
2:53 PM 45.7 °F 38.8 °F 30.4 °F 55% 29.71 in 10.0 mi WNW 16.1 mph 24.2 mph N/A   Scattered Clouds
3:13 PM 45.3 °F 38.4 °F 29.5 °F 54% 29.71 in 10.0 mi West 16.1 mph 24.2 mph N/A   Scattered Clouds
3:33 PM 45.5 °F 37.8 °F 29.1 °F 53% 29.71 in 10.0 mi WNW 19.6 mph 23.0 mph N/A   Scattered Clouds
3:53 PM 46.8 °F - 28.8 °F 50% 29.71 in 10.0 mi WNW 11.5 mph 18.4 mph N/A   Scattered Clouds
4:13 PM 47.1 °F - 28.6 °F 49% 29.71 in 10.0 mi West 11.5 mph 18.4 mph N/A   Mostly Cloudy
4:33 PM 46.9 °F - 28.8 °F 49% 29.71 in 10.0 mi WNW 12.7 mph 18.4 mph N/A   Scattered Clouds
5:13 PM 45.1 °F 39.1 °F 25.0 °F 45% 29.71 in 10.0 mi WNW 12.7 mph 20.7 mph N/A   Scattered Clouds
5:34 PM 44.1 °F 39.5 °F 26.2 °F 50% 29.72 in 10.0 mi WNW 8.1 mph - N/A   Scattered Clouds
5:54 PM 45.0 °F 38.5 °F 27.5 °F 50% 29.72 in 10.0 mi West 13.8 mph - N/A   Mostly Cloudy
6:14 PM 43.9 °F 38.3 °F 26.8 °F 51% 29.73 in 10.0 mi WNW 10.4 mph 20.7 mph N/A   Overcast
6:34 PM 43.2 °F 35.9 °F 27.3 °F 54% 29.74 in 10.0 mi WNW 15.0 mph 20.7 mph N/A   Overcast
7:14 PM 40.3 °F 31.9 °F 28.4 °F 63% 29.76 in 10.0 mi WNW 16.1 mph 20.7 mph N/A   Overcast
7:34 PM 40.1 °F 32.7 °F 28.9 °F 64% 29.77 in 10.0 mi West 12.7 mph - N/A   Overcast
7:54 PM 39.6 °F 33.0 °F 28.4 °F 64% 29.78 in 10.0 mi West 10.4 mph 18.4 mph N/A   Overcast
8:10 PM 39.7 °F 33.2 °F 28.0 °F 63% 29.78 in 10.0 mi WNW 10.4 mph 16.1 mph N/A   Overcast
8:30 PM 39.6 °F 33.5 °F 27.1 °F 61% 29.78 in 10.0 mi WNW 9.2 mph - N/A   Overcast
8:50 PM 39.2 °F 33.6 °F 26.6 °F 61% 29.78 in 10.0 mi West 8.1 mph - N/A   Overcast
9:10 PM 39.0 °F 33.4 °F 25.9 °F 59% 29.79 in 10.0 mi WNW 8.1 mph - N/A   Overcast
9:30 PM 38.8 °F 32.6 °F 25.7 °F 59% 29.79 in 10.0 mi West 9.2 mph - N/A   Overcast
9:50 PM 38.5 °F 32.1 °F 25.5 °F 60% 29.80 in 10.0 mi WNW 9.2 mph - N/A   Overcast
10:10 PM 38.3 °F 31.9 °F 25.7 °F 61% 29.80 in 10.0 mi WNW 9.2 mph - N/A   Overcast
10:30 PM 38.5 °F 32.7 °F 25.7 °F 60% 29.80 in 10.0 mi West 8.1 mph - N/A   Overcast
10:51 PM 38.5 °F 32.7 °F 26.1 °F 61% 29.80 in 10.0 mi West 8.1 mph - N/A   Overcast
11:11 PM 38.5 °F 32.7 °F 25.9 °F 61% 29.80 in 10.0 mi West 8.1 mph - N/A   Overcast
11:31 PM 38.5 °F 32.7 °F 26.2 °F 61% 29.80 in 10.0 mi West 8.1 mph - N/A   Overcast
11:51 PM 38.5 °F 32.7 °F 26.6 °F 62% 29.81 in 10.0 mi West 8.1 mph - N/A   Overcast